Voltar ao catálogo

BREEZE-M DEB

AtivoHEO
NORAD 34257·DEBRIS·🇷🇺 Russia

Lançado Feb 28, 2006 de Baikonur Cosmodrome

Loading…

Próximas Passagens (próximas 24 horas)

TLE

ObsoletoSource: Space-Track

Época: Aug 16, 2026, 15:07 UTC

1 34257U 06006BY  26228.63044872  .00000898  00000-0  27856-2 0  9992
2 34257  52.1697 311.6152 4968182 147.7130 358.6642  5.34483535 42698

Acompanhe BREEZE-M DEB em tempo real com AllMySat

Download on the App Store